Regional Weather Roundup
Issued by NWS

Home | Current Version | Previous Version | Text Only | Print | Product List | Glossary On
Versions: 1 2 3 4 5 6 7 8 9 10 11 12 13 14 15 16 17 18 19 20 21 22 23 24 25 26 27 28 29 30 31 32 33 34 35 36 37 38 39 40 41 42 43 44 45 46 47 48 49 50
000
ASUS42 KFFC 130103
RWRGA
WEATHER ROUNDUP FOR GEORGIA
NATIONAL WEATHER SERVICE PEACHTREE CITY GA
800 PM EST FRI FEB 12 2016

NOTE: "FAIR" INDICATES FEW OR NO CLOUDS BELOW 12,000 FEET WITH NO
SIGNIFICANT WEATHER AND/OR OBSTRUCTIONS TO VISIBILITY.

* = USE WITH CAUTION. THE STATIONS MARKED WITH AN ASTERISK MAY NOT
REPORT WEATHER SUCH AS PRECIPITATION, FOG, OR THUNDER AND ARE NOT
QUALITY CONTROLLED BY NWS.

THE REMARK "TC" DENOTES TEMPERATURE READING IN DEGREES CELSIUS.

GAZ001>058-130200-
NORTH GEORGIA

CITY           SKY/WX    TMP DP  RH WIND       PRES   REMARKS
ATLANTA        PTCLDY    53  30  41 NW17G23   30.11R
ATHENS         CLEAR     51  31  46 NW13G21   30.07R
CHAMBLEE       CLEAR     50  31  48 NW13      30.10R
PEACHTREE CITY CLEAR     54  31  41 NW9       30.11R
ROME           CLEAR     49  28  44 NW8       30.16R
WEST ATLANTA   CLEAR     52  29  41 W9        30.11R
GAINESVILLE    CLEAR     46  27  47 NW14G23   30.10R
CARTERSVILLE   CLEAR     46  31  55 N9        30.16R


CITY           SKY/WX    TMP DP  RH WIND       PRES   REMARKS
DALTON*        CLEAR     41  32  70 N10G16    30.18R
LAWRENCEVILLE* CLEAR     50  28  43 NW12G18   30.09R
MARIETTA       CLEAR     49  31  50 NW10      30.12R
KENNESAW*      CLEAR     46  28  49 N10G18    30.14R
BLAIRSVILLE*     N/A     38  11  33 N6        30.13R WCI  33
$$

GAZ059>098-102>109-130200-
CENTRAL GEORGIA

CITY           SKY/WX    TMP DP  RH WIND       PRES   REMARKS
AUGUSTA-BUSH   CLEAR     43  37  79 S3        30.04S
AUGUSTA-DANIEL CLEAR     51  36  56 CALM      30.05R
COLUMBUS       CLEAR     61  32  33 NW9       30.11R
MACON          CLEAR     57  35  43 NW7       30.08R
ROBINS AFB     CLEAR     59  34  39 W7        30.07R


CITY           SKY/WX    TMP DP  RH WIND       PRES   REMARKS
LAGRANGE*      CLEAR     54  39  58 NW8       30.12R
SYLVANIA*      PTCLDY    51  49  95 CALM      30.05S
MILLEDGEVILLE* CLEAR     55  32  41 CALM      30.07R
$$

GAZ099>101-110>166-130200-
SOUTH GEORGIA

CITY           SKY/WX    TMP DP  RH WIND       PRES   REMARKS
SAVANNAH       CLEAR     59  49  69 W3        30.05R
VALDOSTA       MOCLDY    65  51  60 CALM      30.12R
ALMA           CLEAR     61  51  70 W5        30.08R
ST SIMONS      MOCLDY    65  53  65 W5        30.07R
FT STEWART     CLEAR     57  51  79 CALM      30.03S
ALBANY         CLEAR     58  45  62 W3        30.13R
HUNTER AFB     CLEAR     56  50  82 W3        30.02R
MOODY AFB      CLEAR     63  49  59 W5        30.09R
BRUNSWICK      CLEAR     61  54  77 SW6       30.07R


CITY           SKY/WX    TMP DP  RH WIND       PRES   REMARKS
BAINBRIDGE*    CLEAR     61  50  67 W7        30.13R
MOULTRIE*      CLEAR     64  50  59 CALM      30.12R
VIDALIA*       CLEAR     59  48  67 W6        30.06S
WAYCROSS*      CLEAR     66  54  65 W6        30.08R
DOUGLAS*       CLEAR     61  50  67 W3        30.10S
$$



USA.gov is the U.S. government's official web portal to all federal, state and local government web resources and services.